Regional Weather Roundup
Issued by NWS

Home | Current Version | Previous Version | Graphics & Text | Print | Product List | Glossary On
Versions: 1 2 3 4 5 6 7 8 9 10 11 12 13 14 15 16 17 18 19 20 21 22 23 24 25 26 27 28 29 30 31 32 33 34 35 36 37 38 39 40 41 42 43 44 45 46 47 48 49 50
000
ASUS43 KOAX 282102
RWRNE

WEATHER ROUNDUP FOR NEBRASKA
NATIONAL WEATHER SERVICE OMAHA NE
300 PM CST FRI NOV 28 2014

NOTES: SATELLITE DATA IS BEING USED TO AUGMENT CLOUD COVER ABOVE
       12000 FEET.
       "FAIR" INDICATES FEW OR NO CLOUDS BELOW 12,000 FEET WITH NO
       SIGNIFICANT WEATHER AND/OR OBSTRUCTIONS TO VISIBILITY.

  * THESE STATIONS DO NOT REPORT WEATHER SUCH AS RAIN...SNOW OR FOG.

NEZ001>004-019>022-054>056-282200-
NEBRASKA PANHANDLE

CITY           SKY/WX    TMP DP  RH WIND       PRES   REMARKS
SCOTTSBLUFF    CLOUDY    65  27  23 NW9       29.72F
ALLIANCE       PTSUNNY   65  18  16 W21       29.70F
CHADRON        MOSUNNY  N/A N/A N/A W16G24    29.64F
SIDNEY         CLOUDY    64  20  18 W14       29.77F
$$

NEZ057>060-069>072-079>082-282200-
SOUTHWEST NEBRASKA

CITY           SKY/WX    TMP DP  RH WIND       PRES   REMARKS
NORTH PLATTE   MOSUNNY   71  19  14 W18G29    29.69F
IMPERIAL       PTSUNNY   72  11   9 W14G26    29.74F
MCCOOK         MOSUNNY   78  17  10 W12       29.72F
$$

NEZ005>010-023>029-035>040-094-282200-
NORTH CENTRAL NEBRASKA

CITY           SKY/WX    TMP DP  RH WIND       PRES   REMARKS
VALENTINE      SUNNY     65  27  23 W9        29.63F
BROKEN BOW     MOSUNNY   72  23  16 NW15G25   29.65F
ORD            MOSUNNY   72  21  14 W16G30    29.62F
$$

NEZ041-046>049-061>064-073>077-083>087-282200-
SOUTH CENTRAL NEBRASKA

CITY           SKY/WX    TMP DP  RH WIND       PRES   REMARKS
GRAND ISLAND   MOSUNNY   70  26  19 SW15      29.66F
HASTINGS       MOSUNNY   74  21  13 W16       29.67F
KEARNEY *      PTSUNNY   72  27  18 SW9       29.70S
$$

NEZ011>018-030>034-042>045-282200-
NORTHEAST NEBRASKA

CITY           SKY/WX    TMP DP  RH WIND       PRES   REMARKS
NORFOLK        SUNNY     62  31  31 S9        29.61F
COLUMBUS *     SUNNY     63  32  31 S6        29.66F
TEKAMAH        SUNNY     53  31  42 S13       29.68F
$$

NEZ050>053-065>068-078-088>093-282200-
SOUTHEAST NEBRASKA

CITY           SKY/WX    TMP DP  RH WIND       PRES   REMARKS
LINCOLN        MOSUNNY   61  30  31 S14       29.69F
OMAHA EPPLEY   MOSUNNY   51  31  46 S17       29.71F
FALLS CITY     MOSUNNY   59  32  36 S15       29.75F
$$

NEZ044-045-051>053-067-282200-
OMAHA AREA

CITY           SKY/WX    TMP DP  RH WIND       PRES   REMARKS
OMAHA EPPLEY   MOSUNNY   51  31  46 S17       29.71F
OFFUTT AFB     SUNNY     53  31  42 SE13      29.70F
$$



USA.gov is the U.S. government's official web portal to all federal, state and local government web resources and services.